Tracking 25953 objects as of 16-Aug-2022
HD Live streaming from Space Station
objects crossing your sky now

FLT (TYVAK-0212)

Track FLT (TYVAK-0212) now!
10-day predictions


NORAD ID: 52742
Int'l Code: 2022-057L
Perigee: 529.5 km
Apogee: 539.7 km
Inclination: 97.5 °
Period: 95.2 minutes
Semi major axis: 6905 km
RCS: Unknown
Launch date: May 25, 2022
Source: United States (US)
Launch site: AIR FORCE EASTERN TEST RANGE (AFETR)
aabbcc
Your satellite tracking list
Your tracking list is empty




NASA's NSSDC Master Catalog

Two Line Element Set (TLE):
1 52742U 22057L   22227.39662537  .00006648  00000-0  38135-3 0  9999
2 52742  97.5208 341.1798 0007375 337.0873  23.0028 15.12867590 12348
Source of the keplerian elements: AFSPC